sat.trackr.live / text

‹ back to catalog

STARLINK-35029

NORAD 65445 · 2025-194M

PAYLOAD ACTIVE UNKNOWN

§ Identity

Operator
Country
US
Launch date
2025-09-03
Launch site
AFWTR
Launch vehicle
Mass (kg)
RCS (m²)

Purposes: comms

External: N2YO · Heavens-Above · Gunter

§ Orbital elements

Epoch: 2026-05-25T03:38:16.446336Z

Period
95.64 min
Inclination
97.4506°
Eccentricity
0.0002318
Mean motion
15.05653806 rev/d
Perigee alt
547.9 km
Apogee alt
551.1 km
Semi-major
6,927.6 km
B*
2.3613e-4
RAAN
359.3844°
Arg perigee
65.6440°
Mean anomaly
294.5029°
Rev number
4,115

§ Raw data

STARLINK-350291 65445U 25194M   26145.15157924  .00003350  00000+0  23613-3 0  99952 65445  97.4506 359.3844 0002318  65.6440 294.5029 15.05653806 41153

JSON: /api/v1/satellites/65445 · /tle

For live sub-satellite position, see the globe view (requires WebGL).

§ Visibility from observer

Set your observer location to see the next 7 days of passes ≥ 10°. The values pass through the URL so the page stays shareable.

No JS? Fill the form by hand. The geolocation button needs JavaScript.